Miscellaneous Local Product
Issued by NWS Hastings, NE

Home | Current Version | Previous Version | Text Only | Print | Product List | Glossary Off
Versions: 1 2 3 4 5 6 7 8 9 10 11 12 13 14 15 16 17 18 19 20 21 22 23 24 25 26 27 28 29 30 31 32 33 34 35 36 37 38 39 40 41 42 43 44 45 46 47 48 49 50

000
AXUS43 KGID 291102
MISGRI

GID CWA HOURLY WEATHER ROUNDUP
NATIONAL WEATHER SERVICE HASTINGS NE
600 AM CDT FRI APR 29 2016

NOTE: "FAIR" INDICATES FEW OR NO CLOUDS BELOW 12,000 FEET WITH NO
SIGNIFICANT WEATHER AND/OR OBSTRUCTIONS TO VISIBILITY.

...SOUTH CENTRAL NEBRASKA...

CITY           SKY/WX    TMP DP  RH WIND       PRES   REMARKS
GRAND ISLAND   CLOUDY    41  39  93 N7        30.08F
HASTINGS       MOCLDY    41  38  89 NE6       30.07F
KEARNEY        CLOUDY    41  37  87 N7        30.09F
ORD            CLOUDY    41  39  93 N5        30.09F
YORK           CLOUDY    43  39  87 NE10      30.08F
AURORA         CLOUDY    41  40  97 N7        30.07F
LEXINGTON      CLOUDY    42  39  89 NE6       30.09F
HOLDREGE       CLOUDY    41  39  93 N3        30.08F
HEBRON         MOCLDY    44  39  84 NE8       30.08R

...NEBRASKA PANHANDLE...

CITY           SKY/WX    TMP DP  RH WIND       PRES   REMARKS
CHADRON        CLOUDY    37  35  92 CALM      30.11S
ALLIANCE       CLOUDY    36  35  96 E5        30.09S WCI  32
SCOTTSBLUFF    CLOUDY    35  33  92 SE6       30.10S WCI  30
SIDNEY         CLOUDY    35  34  96 N3        30.08F

...WESTERN AND NORTH CENTRAL NEBRASKA...

CITY           SKY/WX    TMP DP  RH WIND       PRES   REMARKS
VALENTINE      CLOUDY    39  37  92 N5        30.11F
AINSWORTH      CLOUDY    39  39  98 CALM      30.11F FOG
ONEILL         CLOUDY    41  39  95 CALM      30.11F FOG
BROKEN BOW     CLOUDY    37  36  96 N7        30.08F WCI  32
IMPERIAL       CLOUDY    41  38  89 NE6       30.07F
NORTH PLATTE   CLOUDY    40  37  89 NE6       30.09F
MCCOOK         CLOUDY    43  41  93 E8        30.06F

...EASTERN NEBRASKA...

CITY           SKY/WX    TMP DP  RH WIND       PRES   REMARKS
NORFOLK        CLOUDY    41  38  89 N5        30.11S
SO SIOUX CITY  CLOUDY    43  39  86 NE3       30.13F
TEKAMAH        CLOUDY    43  41  93 N7        30.12F
COLUMBUS       CLOUDY    43  34  70 N8        30.09F
ALBION         CLOUDY    41  38  87 N3        30.11S
OMAHA EPPLEY   CLOUDY    45  42  89 N8        30.10F
OFFUTT AFB     CLOUDY    45  42  88 N6        30.09F
MILLARD        CLOUDY    45  40  83 CALM      30.12S
LINCOLN        CLOUDY    45  40  82 NE10      30.09F
NEBRASKA CITY  CLOUDY    45  41  88 N10       30.08F
BEATRICE       CLOUDY    45  40  84 N7        30.08F
FALLS CITY     CLOUDY    46  39  76 N12       30.05F

...NORTHERN KANSAS...

CITY           SKY/WX    TMP DP  RH WIND       PRES   REMARKS
GOODLAND       CLOUDY    39  38  96 NE12      30.00F WCI  32
HILL CITY      LGT RAIN  45  43  93 NE13      30.03F
NORTON         CLOUDY    43  37  81 NE9       30.06F
PHILLIPSBURG   CLOUDY    45  39  81 CALM      30.09S
SMITH CENTER   CLEAR     41  37  87 N6        30.09R
BELOIT         PTCLDY    43  37  81 N10       30.03S
HAYS           CLOUDY    45  37  76 NE20      30.00F
RUSSELL        RAIN      45  43  93 N10       30.04R
CONCORDIA      CLOUDY    45  38  76 N12       30.03F
SALINA         LGT RAIN  49  44  83 NE15G23   30.02F
TOPEKA         CLOUDY    49  45  86 NE8       30.05S



USA.gov is the U.S. government's official web portal to all federal, state and local government web resources and services.